Regional Weather Roundup
Issued by NWS Huntsville, AL

Current Version | Previous Version | Text Only | Print | Product List | Glossary On
Versions: 1 2 3 4 5 6 7 8 9 10 11 12 13 14 15 16 17 18 19 20 21 22 23 24 25 26 27 28 29 30 31 32 33 34 35 36 37 38 39 40 41 42 43 44 45 46 47 48 49 50
000
ASUS44 KHUN 162010
RWRHUN

WEATHER ROUNDUP FOR THE TENNESSEE VALLEY
NATIONAL WEATHER SERVICE HUNTSVILLE AL
300 PM CDT TUE SEP 16 2014

ALZ001>004-162100-
NORTHWEST ALABAMA

CITY           SKY/WX    TMP DP  RH WIND       PRES   REMARKS
COURTLAND HCN    N/A     84 N/A N/A NE5         N/A
RUSSELLVILLE     N/A     84 N/A N/A MISG        N/A
SHOALS AIRPORT PTSUNNY   86  68  54 N8        30.03F
SHOALS TVA RES   N/A     86 N/A N/A MISG        N/A
$$

ALZ005>007-016-162100-
NORTH CENTRAL ALABAMA

CITY           SKY/WX    TMP DP  RH WIND       PRES   REMARKS
CULLMAN AG STN   N/A     86 N/A N/A W5          N/A
DECATUR AP     MOSUNNY   86  66  51 VRB5      30.03F
HUNTSVILLE AP  PTSUNNY   91  66  43 N9        30.03F HX  93
MERIDIANVILLE  MOSUNNY   86  61  42 N9        30.04F
REDSTONE ARSN  MOSUNNY   84  66  54 N8        30.04F
VINEMONT AP    FAIR      86  65  49 NW7       30.06F
$$

ALZ008>010-162100-
NORTHEAST ALABAMA

CITY           SKY/WX    TMP DP  RH WIND       PRES   REMARKS
ALBERTVILLE    SUNNY     82  72  69 N7        30.03F
FORT PAYNE     SUNNY     82  63  51 N6        30.02F
SCOTTSBORO AP  MOSUNNY   82  66  57 NW5       30.03F
SCOTTSBORO HCN   N/A     84 N/A N/A MISG        N/A
VALLEY HEAD      N/A     81 N/A N/A MISG        N/A
$$

TNZ076-096-097-162100-
SOUTHEASTERN MIDDLE TENNESSEE

CITY           SKY/WX    TMP DP  RH WIND       PRES   REMARKS
FAYETTEVILLE   MOSUNNY   79  66  65 NW7       30.06F
TULLAHOMA      CLOUDY    73  66  78 N7        30.08F
WINCHESTER     PTSUNNY   81  66  61 W7        30.06F
$$

...SURROUNDING SITES...

CITY           SKY/WX    TMP DP  RH WIND       PRES   REMARKS
ATLANTA        CLOUDY    84  67  56 NW10      30.02F
ANNISTON       PTSUNNY   82  72  71 S6        30.02F
BIRMINGHAM     PTSUNNY   86  68  54 VRB6      30.04F
CHATTANOOGA    LGT RAIN  80  68  66 NW8       30.03F
CORINTH        CLOUDY    77  68  73 N9        30.06F
DALTON         SUNNY     81  68  65 CALM      30.03F
GADSDEN        MOSUNNY   88  64  45 NW5       30.01F
GOLDEN TRNGL   MOSUNNY   91  66  43 N7        30.03F HX  94
HALEYVILLE     FAIR      88  66  47 N7        30.07F HX  90
JACKSON TN     CLOUDY    75  63  66 VRB3      30.09F
LEWISBURG      CLOUDY    73  67  81 N7        30.08F
MEMPHIS        CLOUDY    75  67  76 N5        30.08F
MURFREESBORO   CLOUDY    68  63  84 N7        30.09F
NASHVILLE      PTSUNNY   72  61  68 N7        30.09F
OXFORD MS      FAIR      82  68  61 N3        30.06F
ROME           PTSUNNY   85  67  54 N8        30.01F
SAVANNAH       CLOUDY    77  68  73 N6        30.08F
TUPELO         PTSUNNY   88  67  49 N5        30.02F HX  91
TUSCALOOSA     SUNNY     88  67  49 N6        30.01F HX  91
$$

...GULF COAST WEATHER...

CITY           SKY/WX    TMP DP  RH WIND       PRES   REMARKS
GULFPORT       LGT RAIN  77  75  93 SW7       29.98F FOG
PASCAGOULA     MOSUNNY   81  77  88 VRB3      29.98F
MOBILE         MOSUNNY   86  75  69 SW5       29.99F HX  95
GULF SHORES    TSTM      74  72  93 NW13G20   30.03R VSB 3/4
PENSACOLA      TSTM      76  76 100 SW3       29.98F FOG
DESTIN         LGT RAIN  79  76  90 VRB3      29.98F
PANAMA CITY    MOSUNNY   81  75  81 SW17G23   29.98F
APPALACHICOLA  CLOUDY    82  72  71 W10       29.98F
$$



USA.gov is the U.S. government's official web portal to all federal, state and local government web resources and services.